User: anonymous   Login
Location: Caltech
(34.1382°N, 118.1253°W)
Time: 03:37:19
(UTC-07:00)
Language:

Cosmos 2237 Rocket - Orbit

View from above orbital plane
View from above orbital plane
View from above satellite
View from above satellite

Ground track
Ground track

The orbit data is extracted from the following two-line orbital elements,

1 22566U 93016B   15183.40922459 -.00000202  00000-0 -79867-4 0  9990
2 22566 071.0071 129.3273 0009245 153.7523 206.4070 14.14901472150022
Epoch (UTC): 02 July 2015 09:49:17
Eccentricity: 0.0009245
inclination: 71.0071°
perigee height: 836 km
apogee height: 849 km
right ascension of ascending node: 129.3273°
argument of perigee: 153.7523°
revolutions per day: 14.14901472
mean anomaly at epoch: 206.4070°
orbit number at epoch: 15002

The dashed part of the orbit path shows where the satellite is in the earth's shadow,  

DLR